Sport private pilot acrobatic tailwheel flight training san jose san francisco bay area california flight school
Book Online at PaperlessFBO

AeroDynamic Webcam

For latest news click here

AeroDynamic Aviation Web Cam
The camera is located on top of our hangar, looking approximately SSW, towards the runways. The picture updates every two minutes. If you can see the hills in the distance (Loma Prieta and Mt Umunhum) the visibility is over 10 miles, and if you can see the tops of the hills the ceilings are higher than 3000' (at least over there). But remember that a webcam is no substitute for a proper weather briefing, preferably from a live Flight Service briefer!

 


METAR = KRHV 291353Z 00000KT 10SM BKN100 23/17 A2996

STATION........ KRHV
OBSERVED....... Sat Aug 29, 09:53 EDT
NOW............ Sat Aug 29, 10:33 EDT
AGE............ 40 min ago
WIND........... calm
VISIBILITY..... 10 miles
CLOUDS......... mostly cloudy
TEMP........... 73°F (23°C)
DEWPT.......... 63°F (17°C)
HUMIDITY....... 69%
BAROMETER...... 1015 hPa (29.96 in Hg)

 

Come and fly with us in the beautiful San Francisco Bay Area of California. Our flight school is located at Reid Hillview airport in San Jose (KRHV), at the south end of San Francisco Bay and we offer ground and flight training for sport pilot, private pilot, commercial pilot, instrument rating, CFI (certified flight instructor), tailwheel, acrobatics, and multi engine certificates and ratings.